{"data":{"norad_id":54196,"epoch":"2026-05-25T00:36:46.027008Z","epoch_age_seconds":80017,"freshness":"FRESH","line1":"1 54196U 22141AR  26145.02553272 -.00000399  00000+0 -69421-5 0  9998","line2":"2 54196  53.2126  11.3207 0001500  70.0491 290.0662 15.08845783197525","mean_motion":15.08845783,"eccentricity":0.00015,"inclination_deg":53.2126,"raan_deg":11.3207,"arg_perigee_deg":70.0491,"mean_anomaly_deg":290.0662,"bstar":-6.9421e-6,"rev_number":19752,"period_min":95.437188891292,"perigee_km":538.68803329618,"apogee_km":540.76339210999,"semimajor_km":6917.8627127031,"source":"CELESTRAK","updated_at":"2026-05-25T13:38:17.684647Z"}}